カタログに戻る

YZ-1 R/B

運用中MEO
NORAD 40751·ROCKET BODY·🇨🇳 China

打ち上げ Jul 25, 2015 から Xichang Satellite Launch Center

Loading…

次のパス (今後24時間)

TLE

最新Source: Space-Track

元期: Sep 8, 2026, 10:05 UTC

1 40751U 15037D   26251.42019031 -.00000109  00000-0  00000-0 0  9990
2 40751  56.3606 340.6226 1022984  76.9040 294.3028  1.56590954 63630

AllMySatでYZ-1 R/Bをリアルタイム追跡

Download on the App Store